Temp
-12 -12 -12 -11 -12 -12 -12 -12 -12 -12 -12 -12 -12 -12 -12 -12 -12 -12 -13 -13 -13 -14 -14 -15 -15 -16 -16 -16 -16 -16 -17 -17 -18 -18 -18 -19 -19 -19 -19 -19 -19 -20 -19
-12 -12 -12 -12 -12 -12 -12 -12 -12 -12 -12 -13 -13 -12 -13 -13 -13 -13 -13 -13 -14 -14 -15 -16 -16 -16 -17 -16 -17 -17 -17 -18 -18 -19 -19 -19 -19 -19 -20 -19 -20 -20 -20
-12 -12 -12 -12 -12 -12 -13 -13 -12 -13 -12 -13 -13 -13 -13 -13 -13 -13 -13 -14 -14 -15 -16 -16 -16 -17 -17 -17 -17 -17 -18 -18 -19 -19 -19 -19 -19 -20 -20 -20 -20 -20 -20
-12 -12 -12 -12 -12 -13 -13 -13 -13 -13 -13 -13 -13 -13 -13 -13 -13 -14 -14 -15 -15 -16 -16 -17 -17 -17 -17 -17 -17 -18 -18 -19 -19 -19 -20 -19 -20 -20 -20 -20 -21 -21 -21
-13 -13 -13 -13 -13 -13 -13 -13 -13 -13 -13 -13 -13 -13 -14 -14 -14 -14 -15 -15 -16 -16 -17 -17 -18 -18 -18 -18 -18 -19 -19 -19 -19 -20 -20 -20 -20 -20 -21 -21 -21 -21 -21
-13 -13 -13 -13 -13 -13 -14 -13 -13 -13 -14 -14 -14 -14 -14 -14 -15 -15 -15 -16 -16 -17 -17 -18 -18 -18 -18 -18 -19 -19 -19 -20 -20 -20 -20 -21 -21 -21 -21 -21 -21 -21 -22
-14 -13 -13 -13 -14 -14 -14 -14 -14 -14 -14 -14 -14 -14 -15 -15 -15 -16 -16 -17 -17 -17 -18 -18 -18 -18 -18 -19 -19 -20 -20 -20 -21 -21 -21 -21 -21 -21 -21 -22 -22 -22 -22
-15 -14 -14 -14 -14 -14 -14 -14 -14 -14 -14 -14 -15 -15 -16 -16 -16 -17 -17 -17 -17 -18 -19 -18 -18 -18 -19 -20 -20 -20 -21 -21 -21 -21 -21 -21 -22 -22 -22 -22 -22 -23 -23
-14 -16 -16 -15 -15 -15 -15 -15 -15 -15 -15 -15 -16 -16 -16 -17 -17 -17 -17 -18 -18 -19 -19 -19 -19 -19 -20 -20 -21 -21 -21 -21 -22 -22 -22 -22 -22 -22 -22 -22 -23 -23 -24
-16 -16 -16 -16 -17 -17 -16 -16 -16 -16 -16 -16 -16 -17 -18 -18 -18 -18 -18 -18 -19 -19 -19 -19 -19 -20 -20 -21 -21 -21 -22 -22 -22 -22 -22 -22 -23 -23 -23 -23 -24 -24 -25
-17 -17 -18 -18 -18 -17 -17 -17 -17 -17 -17 -17 -18 -19 -19 -18 -18 -19 -19 -19 -19 -19 -19 -19 -20 -21 -21 -21 -22 -22 -22 -22 -22 -22 -23 -23 -23 -23 -23 -24 -25 -26 -27
-17 -17 -18 -19 -18 -18 -18 -18 -19 -19 -19 -19 -19 -19 -19 -19 -20 -19 -19 -19 -19 -19 -19 -20 -21 -21 -22 -22 -22 -22 -22 -22 -22 -23 -23 -24 -24 -24 -24 -25 -26 -27 -28
-18 -18 -18 -19 -19 -18 -18 -18 -19 -20 -20 -20 -20 -20 -20 -19 -19 -19 -19 -19 -19 -19 -20 -21 -21 -22 -22 -22 -22 -22 -22 -22 -22 -23 -23 -24 -24 -25 -26 -27 -27 -28 -29
-18 -19 -19 -18 -18 -19 -19 -20 -20 -20 -20 -20 -19 -19 -19 -19 -19 -19 -19 -20 -20 -20 -21 -21 -22 -22 -22 -22 -22 -22 -22 -22 -23 -23 -24 -24 -25 -26 -27 -28 -29 -29 -30
-20 -20 -20 -20 -20 -20 -20 -20 -20 -20 -19 -19 -19 -19 -19 -19 -19 -20 -20 -20 -20 -21 -22 -22 -22 -22 -22 -22 -22 -22 -23 -23 -24 -24 -24 -25 -26 -27 -28 -29 -29 -30 -30
-19 -19 -19 -19 -20 -20 -20 -20 -20 -20 -19 -19 -19 -19 -20 -19 -20 -20 -21 -21 -21 -21 -21 -21 -21 -22 -22 -22 -23 -23 -23 -24 -24 -24 -25 -26 -27 -28 -29 -30 -30 -31 -31
-19 -19 -19 -19 -19 -19 -19 -19 -19 -19 -19 -19 -19 -20 -20 -20 -21 -21 -21 -21 -21 -21 -22 -22 -22 -22 -23 -23 -23 -24 -24 -25 -25 -26 -27 -28 -28 -29 -30 -30 -31 -32 -32
-19 -19 -19 -19 -19 -19 -19 -19 -19 -20 -20 -20 -20 -20 -20 -21 -21 -21 -21 -22 -22 -22 -23 -23 -23 -23 -23 -23 -24 -24 -25 -26 -26 -27 -28 -29 -29 -30 -31 -31 -31 -32 -33
-20 -20 -20 -20 -20 -20 -20 -20 -20 -20 -20 -20 -20 -21 -21 -21 -21 -22 -22 -23 -23 -23 -23 -23 -23 -23 -24 -24 -24 -25 -26 -26 -27 -28 -29 -30 -30 -31 -31 -32 -32 -33 -33
-21 -21 -20 -20 -20 -20 -21 -21 -21 -21 -21 -21 -21 -21 -22 -22 -22 -22 -22 -23 -24 -24 -24 -24 -24 -24 -24 -25 -26 -26 -27 -28 -28 -29 -30 -30 -31 -32 -32 -32 -33 -33 -34
-21 -21 -21 -21 -21 -21 -21 -21 -21 -21 -22 -22 -22 -22 -22 -22 -22 -22 -23 -24 -24 -24 -24 -25 -25 -25 -26 -26 -27 -28 -28 -29 -30 -30 -31 -32 -32 -32 -32 -33 -34 -34 -34
-22 -22 -22 -22 -22 -22 -22 -22 -22 -22 -22 -22 -22 -22 -22 -23 -23 -23 -24 -25 -25 -25 -26 -26 -26 -27 -27 -28 -28 -29 -30 -30 -31 -31 -32 -32 -33 -34 -33 -34 -34 -35 -35
-22 -22 -22 -22 -22 -22 -22 -22 -22 -22 -22 -22 -22 -23 -23 -24 -25 -25 -26 -27 -27 -27 -27 -28 -28 -29 -29 -30 -30 -31 -31 -31 -32 -32 -33 -34 -34 -34 -34 -35 -35 -35 -35
-21 -21 -21 -22 -22 -22 -22 -22 -22 -23 -23 -24 -24 -25 -25 -25 -26 -27 -27 -28 -28 -28 -28 -28 -29 -30 -30 -31 -31 -32 -32 -33 -33 -33 -34 -34 -34 -35 -35 -35 -35 -35 -36
-22 -22 -23 -23 -23 -23 -23 -23 -24 -24 -25 -25 -26 -26 -27 -27 -28 -28 -28 -29 -29 -29 -29 -30 -30 -31 -31 -32 -32 -33 -33 -33 -33 -34 -34 -34 -35 -35 -35 -35 -36 -36 -36
-23 -23 -24 -24 -24 -24 -24 -25 -25 -25 -26 -26 -27 -27 -28 -28 -29 -29 -29 -30 -30 -30 -30 -31 -31 -32 -32 -33 -33 -33 -34 -34 -34 -35 -35 -35 -35 -35 -35 -36 -36 -36 -36
Height
5802 5803 5804 5806 5805 5804 5804 5804 5803 5803 5802 5800 5797 5796 5793 5790 5787 5784 5780 5777 5773 5769 5765 5762 5758 5752 5746 5739 5734 5727 5719 5711 5701 5694 5686 5677 5669 5661 5654 5646 5635 5624 5612
5791 5792 5792 5794 5794 5793 5793 5793 5792 5792 5791 5789 5787 5784 5782 5779 5776 5773 5770 5766 5762 5758 5754 5750 5746 5740 5733 5727 5721 5715 5709 5699 5691 5681 5672 5665 5658 5650 5641 5634 5622 5610 5597
5778 5779 5780 5780 5781 5781 5781 5781 5780 5779 5779 5776 5776 5773 5770 5767 5764 5761 5758 5754 5750 5746 5742 5738 5733 5727 5721 5714 5707 5701 5694 5686 5678 5671 5661 5654 5645 5638 5627 5617 5610 5597 5583
5763 5765 5767 5768 5769 5768 5768 5767 5767 5767 5765 5764 5763 5760 5757 5755 5751 5749 5745 5741 5737 5733 5730 5726 5720 5715 5708 5701 5695 5688 5681 5673 5665 5657 5650 5642 5634 5625 5617 5606 5594 5582 5569
5751 5753 5754 5754 5755 5755 5755 5755 5754 5753 5751 5750 5748 5746 5743 5741 5737 5735 5731 5727 5724 5721 5718 5713 5708 5701 5694 5688 5681 5674 5667 5660 5653 5645 5638 5629 5622 5612 5603 5593 5581 5570 5556
5737 5739 5740 5741 5743 5743 5743 5742 5741 5740 5738 5736 5734 5732 5729 5727 5724 5720 5718 5714 5712 5708 5704 5700 5694 5688 5681 5674 5667 5660 5654 5646 5640 5632 5624 5617 5608 5600 5589 5579 5568 5554 5544
5726 5726 5727 5728 5729 5729 5728 5728 5727 5725 5724 5722 5720 5718 5715 5713 5710 5707 5705 5702 5699 5695 5691 5685 5680 5674 5668 5661 5654 5646 5639 5633 5626 5619 5612 5603 5595 5585 5577 5566 5554 5543 5530
5710 5711 5712 5712 5713 5713 5713 5713 5713 5712 5710 5708 5706 5704 5702 5700 5698 5695 5693 5689 5686 5681 5676 5671 5665 5660 5653 5647 5641 5633 5626 5620 5612 5606 5599 5591 5581 5573 5563 5553 5541 5529 5516
5694 5693 5695 5697 5697 5698 5700 5699 5698 5697 5696 5694 5692 5691 5689 5687 5685 5682 5679 5675 5670 5666 5661 5657 5651 5645 5638 5632 5626 5620 5613 5605 5598 5591 5583 5576 5568 5558 5549 5538 5527 5516 5504
5680 5677 5679 5681 5683 5684 5685 5684 5684 5683 5682 5680 5679 5678 5676 5673 5671 5667 5664 5660 5655 5652 5648 5641 5635 5629 5623 5618 5613 5606 5599 5592 5585 5576 5568 5561 5554 5544 5533 5523 5512 5501 5491
5666 5666 5667 5669 5670 5671 5671 5671 5670 5670 5668 5667 5666 5664 5661 5659 5655 5651 5648 5644 5640 5636 5631 5625 5619 5613 5607 5602 5597 5592 5586 5579 5570 5563 5555 5545 5538 5529 5518 5508 5497 5488 5477
5651 5652 5655 5656 5656 5655 5655 5655 5655 5654 5654 5652 5651 5649 5646 5643 5639 5635 5632 5628 5623 5619 5614 5609 5603 5597 5593 5588 5582 5577 5571 5564 5557 5549 5540 5531 5523 5514 5504 5494 5484 5475 5466
5636 5637 5639 5640 5641 5641 5640 5639 5638 5638 5638 5637 5635 5632 5629 5627 5624 5620 5615 5611 5606 5602 5597 5592 5587 5582 5578 5572 5567 5561 5555 5549 5542 5534 5526 5517 5508 5499 5490 5481 5472 5464 5455
5624 5623 5623 5625 5626 5625 5625 5624 5624 5623 5622 5621 5618 5616 5613 5611 5607 5603 5598 5593 5590 5585 5581 5576 5571 5566 5562 5557 5550 5545 5539 5533 5526 5518 5511 5502 5492 5485 5476 5468 5460 5452 5444
5612 5612 5611 5611 5611 5612 5611 5610 5609 5607 5606 5604 5602 5600 5597 5594 5590 5586 5582 5578 5575 5570 5564 5560 5555 5550 5545 5540 5534 5527 5521 5515 5509 5502 5495 5487 5478 5470 5462 5454 5446 5439 5432
5599 5598 5597 5596 5596 5595 5595 5595 5594 5592 5591 5589 5584 5582 5579 5576 5573 5570 5566 5562 5558 5553 5548 5544 5540 5535 5529 5523 5517 5510 5503 5497 5491 5484 5476 5469 5463 5455 5448 5440 5434 5426 5418
5585 5584 5584 5584 5583 5582 5581 5579 5577 5576 5573 5571 5568 5565 5563 5561 5557 5554 5551 5547 5542 5538 5534 5529 5524 5518 5512 5506 5500 5493 5486 5479 5472 5466 5459 5452 5447 5440 5432 5426 5419 5412 5404
5570 5570 5569 5568 5567 5566 5564 5563 5562 5560 5558 5556 5553 5551 5548 5545 5542 5538 5534 5530 5526 5521 5517 5512 5507 5501 5495 5489 5483 5477 5470 5463 5457 5450 5443 5437 5430 5424 5418 5411 5404 5397 5390
5557 5556 5555 5554 5553 5552 5551 5550 5548 5546 5544 5542 5538 5535 5532 5529 5525 5521 5516 5512 5508 5503 5498 5493 5488 5483 5477 5471 5464 5458 5452 5446 5440 5434 5428 5421 5415 5408 5402 5395 5388 5381 5375
5545 5543 5542 5540 5539 5538 5536 5535 5533 5530 5527 5525 5522 5518 5515 5512 5508 5503 5498 5494 5489 5484 5479 5473 5468 5462 5457 5451 5445 5440 5434 5429 5424 5418 5412 5406 5400 5393 5387 5380 5372 5366 5359
5530 5528 5527 5525 5524 5522 5521 5518 5516 5514 5511 5508 5505 5501 5497 5493 5489 5485 5480 5474 5469 5463 5457 5451 5447 5441 5436 5431 5426 5420 5415 5409 5405 5400 5395 5389 5383 5376 5369 5364 5358 5351 5346
5516 5514 5512 5510 5508 5506 5503 5501 5498 5495 5492 5489 5485 5481 5478 5473 5468 5464 5460 5455 5449 5443 5437 5430 5425 5420 5416 5411 5406 5401 5396 5392 5388 5383 5377 5371 5364 5358 5353 5346 5340 5335 5328
5500 5498 5495 5492 5490 5487 5484 5481 5477 5474 5470 5466 5462 5457 5453 5450 5444 5440 5437 5433 5426 5420 5415 5410 5404 5399 5394 5389 5385 5382 5376 5372 5367 5362 5358 5352 5347 5342 5336 5330 5324 5319 5313
5478 5476 5473 5471 5468 5465 5462 5458 5454 5450 5446 5441 5437 5433 5429 5425 5420 5415 5411 5408 5403 5398 5393 5389 5384 5378 5373 5369 5365 5361 5356 5352 5347 5344 5340 5334 5328 5323 5319 5313 5307 5302 5298
5455 5452 5448 5445 5442 5439 5435 5432 5428 5424 5420 5416 5412 5407 5403 5399 5395 5391 5387 5383 5380 5375 5371 5367 5363 5358 5353 5348 5344 5340 5336 5333 5329 5325 5322 5317 5312 5305 5301 5296 5291 5287 5283
5429 5426 5423 5419 5416 5412 5408 5404 5400 5396 5392 5388 5384 5380 5376 5372 5368 5364 5361 5357 5353 5349 5345 5341 5338 5334 5331 5328 5324 5320 5317 5314 5310 5307 5304 5300 5295 5290 5285 5280 5276 5272 5267
Wind_Speed
53 53 51 51 50 51 51 50 49 48 48 50 50 50 51 51 54 54 54 54 54 54 53 52 50 51 57 61 66 65 66 70 70 66 66 64 61 64 66 70 73 76 80
56 56 54 55 54 54 54 53 53 52 51 52 53 52 54 54 55 57 57 56 55 54 54 51 52 56 61 65 67 67 69 70 68 65 66 62 62 64 68 71 75 79 85
61 60 59 57 57 56 56 57 57 56 55 55 55 55 55 57 57 59 59 57 56 54 53 53 55 59 63 66 68 69 70 68 65 65 64 63 64 65 70 75 78 82 88
64 64 61 59 58 58 58 58 58 57 58 56 56 57 57 59 59 59 58 57 56 55 54 54 55 61 64 69 70 73 70 65 65 65 64 65 65 69 72 76 82 87 92
66 65 64 63 62 60 59 59 58 57 58 57 57 58 60 60 59 59 58 57 56 55 56 54 58 61 63 70 73 71 66 65 65 65 65 67 68 73 76 78 85 89 93
69 67 65 63 62 61 60 59 58 58 57 58 59 60 60 60 59 57 57 57 56 57 56 57 63 67 71 73 72 69 66 67 65 65 67 68 72 75 78 80 85 90 92
66 64 62 60 58 58 59 59 59 60 59 59 59 60 59 58 57 56 56 56 58 58 57 63 67 69 74 70 69 66 67 69 68 67 70 74 76 79 80 84 88 90 94
70 64 63 62 61 61 61 59 59 60 61 61 59 57 56 56 57 55 56 58 58 60 63 64 68 71 70 68 65 66 66 69 67 70 72 76 78 80 81 85 88 90 92
68 70 60 60 60 61 60 58 56 55 55 56 55 56 55 54 54 56 58 60 61 65 63 69 68 69 68 66 63 68 69 66 70 73 75 78 79 79 83 86 89 90 89
61 64 66 62 57 56 53 48 49 50 52 52 52 52 51 54 57 58 61 63 64 64 70 69 70 66 65 61 67 68 68 70 73 76 77 79 79 80 84 87 86 87 85
58 62 57 54 51 50 51 51 54 53 54 53 51 53 56 57 58 60 62 64 70 70 69 70 65 64 64 64 68 67 69 73 74 75 77 78 78 82 84 83 80 80 76
65 63 54 51 50 53 54 53 52 51 51 53 55 54 55 58 62 64 68 68 68 71 70 64 63 64 64 66 68 70 72 74 75 75 77 77 81 84 83 81 79 74 73
63 60 60 59 61 61 57 58 56 53 54 56 59 61 61 60 63 69 69 70 70 66 61 63 63 65 66 69 70 72 73 73 74 76 77 80 82 81 79 76 73 69 72
63 62 63 67 62 57 55 55 55 53 53 55 58 60 64 69 69 70 68 64 61 60 64 65 65 66 68 69 71 72 72 74 76 75 78 81 79 77 73 71 66 68 71
51 50 50 48 48 48 49 50 53 57 59 62 64 69 73 70 65 61 59 59 59 61 63 63 63 65 68 71 71 73 75 76 75 78 82 80 77 73 71 66 66 68 70
56 60 62 62 62 61 60 61 63 66 70 70 68 65 62 58 57 59 56 48 55 58 60 61 63 66 66 69 72 75 77 77 80 81 81 79 75 72 66 64 68 70 67
47 48 49 52 55 58 60 62 64 64 61 58 55 52 55 53 49 48 48 56 57 60 61 64 66 69 70 74 76 76 77 79 79 78 76 74 71 66 64 66 69 67 61
48 50 51 51 51 52 52 52 52 51 51 52 55 51 50 51 50 52 57 59 59 62 65 67 68 72 76 77 79 79 80 80 79 74 73 74 67 66 66 69 68 64 60
46 47 48 48 49 50 51 51 49 49 52 53 51 53 56 59 61 62 63 62 64 67 69 70 73 76 79 81 82 82 82 78 75 75 72 69 68 69 70 67 62 61 57
48 48 48 48 49 51 49 49 50 51 53 54 58 62 64 66 69 70 70 69 69 70 73 76 79 81 82 83 84 83 78 75 76 74 70 70 69 71 67 61 60 58 56
53 54 54 53 52 53 55 56 57 58 59 62 64 67 70 72 74 74 73 73 71 75 79 81 82 83 84 83 82 80 79 76 76 76 71 70 71 67 61 59 58 57 60
50 52 52 53 54 57 59 61 62 63 64 66 69 70 72 74 75 74 74 71 73 77 78 83 85 85 85 85 84 82 78 78 77 75 69 68 63 58 57 55 55 58 57
64 63 62 61 62 64 66 68 70 72 73 74 75 76 77 77 76 76 75 69 73 79 82 82 81 81 82 82 80 78 75 77 70 69 66 61 57 60 56 57 59 59 49
69 71 72 72 73 74 75 75 76 77 78 78 78 78 79 79 79 78 77 76 78 80 82 84 85 81 79 79 78 81 79 70 68 65 62 60 62 57 57 62 59 50 46
76 77 78 80 81 83 83 83 83 82 82 82 81 81 81 80 80 80 81 82 83 85 86 86 86 86 84 81 76 74 66 68 65 61 61 59 58 56 60 62 49 47 49
84 85 86 87 88 87 87 87 87 87 87 86 85 85 84 84 84 84 84 85 87 87 87 86 84 83 81 79 74 70 71 66 62 62 58 53 53 58 60 51 51 50 51
Wind_Direction
250 251 253 254 256 259 261 264 265 267 270 274 276 278 279 281 282 283 285 288 290 291 290 289 292 296 300 305 310 312 313 317 317 315 316 317 316 318 319 321 322 322 323
252 252 254 256 257 260 263 265 266 269 271 272 275 277 278 280 282 284 286 288 289 290 288 290 294 297 300 307 312 311 314 315 315 315 317 316 315 318 320 322 323 324 325
252 253 254 255 258 260 262 265 267 269 270 273 275 277 279 280 282 283 285 287 288 286 288 290 294 297 305 310 309 310 312 314 314 315 315 315 316 318 321 323 325 326 327
250 252 253 256 257 259 260 263 265 268 271 272 274 275 277 278 280 282 284 285 285 285 286 290 295 301 307 308 310 311 313 313 314 315 315 315 317 318 319 322 325 326 328
251 252 253 254 256 258 260 262 265 267 269 271 272 274 275 277 279 281 282 282 282 285 287 290 299 305 308 309 310 310 311 314 315 315 316 316 317 318 320 321 325 327 328
251 252 253 255 258 259 261 263 265 266 267 269 271 273 274 276 278 279 280 281 282 284 286 292 300 302 307 309 309 309 312 314 315 316 316 316 316 318 321 323 326 328 328
250 251 254 256 258 259 261 262 262 264 266 268 269 272 274 275 276 278 278 280 282 284 288 294 301 306 305 306 307 309 311 314 313 313 314 314 316 319 320 323 327 327 329
247 250 252 254 256 259 260 262 263 264 266 269 270 271 273 275 276 277 280 280 283 287 292 297 303 302 303 305 306 310 308 309 310 312 312 314 316 318 320 324 326 327 330
257 245 252 256 258 259 261 263 263 264 265 267 269 272 273 275 277 280 279 281 286 291 293 298 299 302 303 303 307 302 305 307 308 309 311 312 315 318 321 324 325 327 330
256 258 252 258 260 261 261 261 263 266 269 270 272 274 275 278 277 278 281 285 289 288 291 295 302 301 300 302 296 303 305 305 306 308 310 312 315 318 321 323 325 328 329
249 252 252 252 253 257 260 263 263 264 267 269 271 274 275 276 278 280 283 284 285 289 293 300 299 299 301 298 300 301 302 303 305 307 309 311 314 318 320 322 325 327 328
250 253 257 262 263 261 260 261 264 266 269 271 273 274 276 277 278 280 282 285 288 294 297 298 297 296 295 296 297 298 300 302 305 307 308 312 314 318 320 322 324 326 327
255 257 253 254 260 262 263 265 268 269 268 268 269 273 274 275 277 280 284 289 294 295 298 297 293 293 293 294 296 298 300 303 305 307 310 311 316 318 320 323 325 326 327
254 258 259 258 263 264 266 267 270 273 272 269 268 270 274 276 281 286 290 292 294 297 296 291 292 292 294 295 297 300 302 303 305 308 308 312 315 317 320 321 323 323 325
257 257 257 258 259 260 261 261 261 263 265 269 272 275 281 283 286 287 290 292 295 293 289 291 291 293 295 297 300 300 301 303 305 306 309 312 315 318 318 319 321 321 322
269 268 262 257 256 255 256 258 261 264 267 273 277 280 282 284 286 288 288 286 286 287 289 292 295 295 298 299 299 299 301 301 303 305 308 312 315 317 318 318 320 319 318
267 267 268 268 268 268 269 270 270 272 275 277 280 284 285 283 276 280 286 283 286 290 292 293 293 296 297 295 296 297 297 300 303 309 310 314 314 316 316 316 317 315 314
271 271 270 270 271 272 273 274 275 277 282 284 282 274 266 268 278 282 280 288 291 292 292 293 294 294 294 294 294 295 297 300 305 307 311 313 313 314 314 314 314 311 309
274 274 275 276 276 277 277 278 279 278 278 277 269 270 278 285 288 289 291 292 293 295 297 294 291 290 290 291 291 293 296 301 303 307 311 311 310 312 312 312 308 306 306
277 277 275 275 275 274 271 268 268 269 272 274 277 281 285 287 288 290 291 293 292 291 288 285 285 286 287 288 290 295 298 301 304 310 309 307 307 309 309 305 303 302 303
278 278 278 277 276 275 269 271 273 275 277 278 279 280 282 284 285 287 289 290 288 285 283 283 284 285 287 291 293 296 298 301 304 305 303 305 306 307 307 301 300 300 305
276 273 272 272 273 273 273 273 274 275 277 279 280 282 283 285 286 286 285 283 281 280 280 282 285 287 289 292 293 295 298 300 300 301 301 302 302 305 301 299 300 301 302
278 279 278 278 279 279 279 280 281 282 283 284 285 286 286 286 284 283 282 278 275 275 278 282 284 286 287 289 290 292 294 297 298 299 301 297 301 307 300 301 302 303 297
280 280 280 281 282 283 284 285 286 286 286 285 285 284 284 283 282 281 280 276 275 275 276 279 282 283 284 286 291 293 296 296 296 299 293 295 303 300 299 302 301 296 292
280 281 282 283 284 285 286 286 286 285 285 284 283 282 281 280 279 278 277 275 274 275 276 278 280 283 285 286 288 289 289 290 290 290 291 294 299 295 298 301 294 291 293
284 284 284 284 284 284 284 284 284 284 284 284 283 282 281 280 278 277 277 276 276 276 277 278 279 280 282 284 287 283 285 287 289 289 290 293 294 296 299 296 294 293 295